Regional Weather Roundup
Issued by NWS

Home | Current Version | Previous Version | Text Only | Print | Product List | Glossary Off
Versions: 1 2 3 4 5 6 7 8 9 10 11 12 13 14 15 16 17 18 19 20 21 22 23 24 25 26 27 28 29 30 31 32 33 34 35 36 37 38 39 40 41 42 43 44 45 46 47 48 49 50

000
ASUS44 KMEG 101300
RWRTN
TENNESSEE HOURLY STATE WEATHER ROUNDUP
NATIONAL WEATHER SERVICE MEMPHIS TN
700 AM CST SAT DEC 10 2016

TNZ002-004-019-021-049-052-054-088>092-101400-
WEST TENNESSEE

CITY           SKY/WX    TMP DP  RH WIND       PRES   REMARKS
MEMPHIS INTL   PTCLDY    25  18  74 CALM      30.60R
NWS MEMPHIS      N/A     20 N/A N/A MISG        N/A
JACKSON        CLOUDY    17  15  92 CALM      30.61R
DYERSBURG      PTCLDY    19  18  93 CALM      30.61R
PARIS          CLEAR     14  12  92 CALM      30.59S
$$

TNZ008-025-027-028-033-062-065-066-101400-
NORTH MIDDLE TENNESSEE

CITY           SKY/WX    TMP DP  RH WIND       PRES   REMARKS
NASHVILLE      PTCLDY    20  15  81 CALM      30.61R
CLARKSVILLE    CLOUDY    15  12  88 CALM      30.61R
SMYRNA         CLOUDY    15  11  83 CALM      30.62R
CROSSVILLE     CLOUDY    14  11  87 CALM      30.51R
$$

TNZ061-075-076-078-094-096-097-101400-
SOUTH MIDDLE TENNESSEE

CITY           SKY/WX    TMP DP  RH WIND       PRES   REMARKS
TULLAHOMA      CLEAR     16  10  79 CALM      30.56R
WINCHESTER     CLEAR     16  12  86 CALM      30.57R
SHELBYVILLE    CLEAR     18  16  93 CALM      30.59R
$$

TNZ017-018-042-046-047-101400-
NORTHEAST TENNESSEE

CITY           SKY/WX    TMP DP  RH WIND       PRES   REMARKS
TRI CITIES     FOG       16  12  84 CALM      30.53R VSB 1/4
$$

TNZ012-013-036-069-073-074-101400-
CENTRAL EAST TENNESSEE

CITY           SKY/WX    TMP DP  RH WIND       PRES   REMARKS
KNOXVILLE      CLEAR     20  15  81 NE3       30.56R
OAK RIDGE      CLEAR     19  14  81 CALM      30.58S
GATLINBURG     CLEAR     12  10  92 CALM      30.56R
$$

TNZ083-085-099-101400-
SOUTHEAST TENNESSEE

CITY           SKY/WX    TMP DP  RH WIND       PRES   REMARKS
CHATTANOOGA    CLEAR     23  18  81 CALM      30.58R
$$

SKY/WX REPORTED AS FAIR MEANS FEW OR NO CLOUDS BELOW
12 THOUSAND FEET.





USA.gov is the U.S. government's official web portal to all federal, state and local government web resources and services.